Regional Weather Roundup
Issued by NWS

Home | Current Version | Previous Version | Graphics & Text | Print | Product List | Glossary On
Versions: 1 2 3 4 5 6 7 8 9 10 11 12 13 14 15 16 17 18 19 20 21 22 23 24 25 26 27 28 29 30 31 32 33 34 35 36 37 38 39 40 41 42 43 44 45 46 47 48 49 50
000
ASUS45 KBOI 071010
RWRID

IDAHO REGIONAL WEATHER ROUNDUP
NATIONAL WEATHER SERVICE BOISE ID
400 AM MDT TUE JUL 07 2015

NOTE: "FAIR" INDICATES FEW OR NO CLOUDS BELOW 12000 FEET
WITH NO SIGNIFICANT WEATHER AND/OR OBSTRUCTIONS TO VISIBILITY

IDZ012-014-071100-
SOUTHWEST IDAHO


CITY           SKY/WX    TMP DP  RH WIND       PRES   REMARKS
BOISE          CLOUDY    77  47  34 E6        29.97R
CALDWELL       CLOUDY    72  52  49 CALM      29.96S
MOUNTAIN HOME  CLOUDY    68  49  49 E6        29.98S
$$

IDZ016-017-071100-
SOUTHCENTRAL IDAHO


CITY           SKY/WX    TMP DP  RH WIND       PRES   REMARKS
BURLEY         MOCLDY    68  50  52 E3        30.05F
JEROME         PTCLDY    66  51  58 E10       30.06S
TWIN FALLS     PTCLDY    66  49  54 S9        30.04S
$$

IDZ019>023-071100-
SOUTHEAST IDAHO


CITY           SKY/WX    TMP DP  RH WIND       PRES   REMARKS
IDAHO FALLS    MOCLDY    57  53  86 N7        30.12R
POCATELLO      CLEAR     61  53  75 CALM      30.10R
REXBURG        MOCLDY    55  49  80 E5        30.12S
$$

IDZ006-010-011-018-031-032-071100-
CENTRAL IDAHO MOUNTAINS


CITY           SKY/WX    TMP DP  RH WIND       PRES   REMARKS
MCCALL         CLEAR     53  44  71 CALM      30.12S
HAILEY         PTCLDY    61  50  67 NW9       30.17S
STANLEY          N/A     44  40  85 CALM      30.27R
SALMON         CLEAR     57  45  62 CALM      30.10S
CHALLIS        CLEAR     53  50  89 CALM      30.18R
$$

IDZ002-004-006-007-026-071100-
NORTHERN IDAHO


CITY           SKY/WX    TMP DP  RH WIND       PRES   REMARKS
LEWISTON       CLEAR     73  43  33 CALM      29.89R
LOWELL           N/A     62  52  69 NW5       29.99R
COEUR D`ALENE  PTCLDY    66  46  48 E8        29.94S
MULLAN PASS    CLOUDY    63  38  39 S6        30.17F
$$



USA.gov is the U.S. government's official web portal to all federal, state and local government web resources and services.